ContactaLinksHome
    
DADES METEOROLÒGIQUES DE LES ÚLTIMES 24 HORES
 

Taire  Temperatura de l'aire  (ºC)
HumitatR  Humitat relativa de l'aire (%)
Pluja  Litres de pluja per metre cuadrat caiguts en 10 minuts (l/m²)
VelVent  Velocitat mitjana del vent (m/s)
DirVent  Direcció del vent  (º)
RadSolar  Intensitat de Radiació solar (w/m²)
PressAtm  Pressió atmosfèrica (mb)
  ***Dades sense verificar
DataTaireHumitatRPlujaVelVentDirVentRadSolarPressAtm
21/07/2017 12:40:0025.5650,04.11309511012
21/07/2017 12:30:0025.6640,03.61219561012
21/07/2017 12:20:0025.6640,02.71289621012
21/07/2017 12:10:0025.6630,02.61299621012
21/07/2017 12:00:0025.5640,02.91496581012
21/07/2017 11:50:0025.6640,03.81524091011
21/07/2017 11:40:0025.8640,03.11497751012
21/07/2017 11:30:0025.8630,03.81647241011
21/07/2017 11:20:0025.8620,03.91609381012
21/07/2017 11:10:0025.7630,04.01794921012
21/07/2017 11:00:0025.8640,04.01832991012
21/07/2017 10:50:0025.8620,04.61581381012
21/07/2017 10:40:0026.3590,03.91542311011
21/07/2017 10:30:0026.4580,03.41334141011
21/07/2017 10:20:0027.4570,04.01435091011
21/07/2017 10:10:0027.6470,02.8598471011
21/07/2017 10:00:0027.4450,04.3316211011
21/07/2017 9:50:0027.4450,01.33572261011
21/07/2017 9:40:0027.3470,03.23444821011
21/07/2017 9:30:0026.9500,04.0215341011
21/07/2017 9:20:0026.0650,01.73422701011
21/07/2017 9:10:0025.5660,01.11033111011
21/07/2017 9:00:0025.4670,01.91764851011
21/07/2017 8:50:0025.4670,02.41905441011
21/07/2017 8:40:0025.2680,02.31894941011
21/07/2017 8:30:0025.1670,02.21735031011
21/07/2017 8:20:0025.2660,02.11804451011
21/07/2017 8:10:0025.2640,02.02225671011
21/07/2017 8:00:0025.1620,01.42163971011
21/07/2017 7:50:0024.8630,01.52332731011
21/07/2017 7:40:0024.7630,01.92452891011
21/07/2017 7:30:0024.7640,01.42683011011
21/07/2017 7:20:0024.7650,00.63433801011
21/07/2017 7:10:0024.3650,01.43012981011
21/07/2017 7:00:0024.3650,01.73223221011
21/07/2017 6:50:0024.0660,02.13182391011
21/07/2017 6:40:0023.9660,02.33232101011
21/07/2017 6:30:0023.6660,02.23261621011
21/07/2017 6:20:0023.5660,02.43281661011
21/07/2017 6:10:0023.4660,02.4322861011
21/07/2017 6:00:0023.3660,02.2329651011
21/07/2017 5:50:0023.3660,02.6327581011
21/07/2017 5:40:0023.1680,02.5317541011
21/07/2017 5:30:0022.9690,02.3328431011
21/07/2017 5:20:0022.9690,03.2329231011
21/07/2017 5:10:0022.9690,03.4313161011
21/07/2017 5:00:0022.9700,03.8302111011
21/07/2017 4:50:0023.0730,03.332241011
21/07/2017 4:40:0023.2730,02.732511011
21/07/2017 4:30:0023.3730,01.931101011
21/07/2017 4:20:0023.4740,01.931501011
21/07/2017 4:10:0023.5740,01.430501011
21/07/2017 4:00:0023.4740,01.529101011
21/07/2017 3:50:0023.6740,01.831001011
21/07/2017 3:40:0023.6740,01.331301011
21/07/2017 3:30:0023.5740,01.131601011
21/07/2017 3:20:0023.4740,00.930901011
21/07/2017 3:10:0023.3740,01.533701011
21/07/2017 3:00:0023.4740,01.634201011
21/07/2017 2:50:0023.6740,01.434201011
21/07/2017 2:40:0023.6740,01.033701011
21/07/2017 2:30:0023.7740,00.635301011
21/07/2017 2:20:0023.7740,01.31501011
21/07/2017 2:10:0023.7750,01.25801011
21/07/2017 2:00:0023.7750,01.210701011
21/07/2017 1:50:0023.8750,01.910501011
21/07/2017 1:40:0023.8750,02.09001011
21/07/2017 1:30:0023.8750,02.512001011
21/07/2017 1:20:0023.8740,03.012001011
21/07/2017 1:10:0023.9740,03.110801011
21/07/2017 1:00:0023.9740,03.612301012
21/07/2017 0:50:0023.9740,03.611501012
21/07/2017 0:40:0023.9760,04.111101012
21/07/2017 0:30:0023.9760,04.811001011
21/07/2017 0:20:0024.0760,05.010801012
21/07/2017 0:10:0024.0760,05.010101012
21/07/2017 0:00:0024.0750,05.29501012
20/07/2017 23:50:0024.0750,05.010401012
20/07/2017 23:40:0024.0760,05.310501012
20/07/2017 23:30:0024.1750,05.110501012
20/07/2017 23:20:0024.1750,05.011001012
20/07/2017 23:10:0024.2740,05.411701012
20/07/2017 23:00:0024.2740,05.410001012
20/07/2017 22:50:0024.2740,05.59601012
20/07/2017 22:40:0024.4720,05.410001012
20/07/2017 22:30:0024.4710,05.410001012
20/07/2017 22:20:0024.5700,05.49501012
20/07/2017 22:10:0024.5690,05.99301012
20/07/2017 22:00:0024.6700,06.09101012
20/07/2017 21:50:0024.6680,06.99401012
20/07/2017 21:40:0024.8680,07.410101012
20/07/2017 21:30:0024.8680,07.78801012
20/07/2017 21:20:0024.8690,07.39001012
20/07/2017 21:10:0024.8680,07.39401012
20/07/2017 21:00:0024.8680,07.09801012
20/07/2017 20:50:0024.8690,06.610001012
20/07/2017 20:40:0024.8690,06.910301012
20/07/2017 20:30:0024.7690,07.210001012
20/07/2017 20:20:0024.9670,07.89201012
20/07/2017 20:10:0024.9670,07.810001012
20/07/2017 20:00:0024.9670,07.59701011
20/07/2017 19:50:0024.9670,07.610301011
20/07/2017 19:40:0024.9680,07.79411011
20/07/2017 19:30:0024.9680,07.29551011
20/07/2017 19:20:0025.0670,07.39071011
20/07/2017 19:10:0025.0670,07.587121011
20/07/2017 19:00:0025.0670,07.393211011
20/07/2017 18:50:0024.9670,07.399391011
20/07/2017 18:40:0024.8670,07.490581011
20/07/2017 18:30:0024.7700,07.394811011
20/07/2017 18:20:0024.5690,08.2981081011
20/07/2017 18:10:0024.7690,08.2911361011
20/07/2017 18:00:0024.6690,08.7831641011
20/07/2017 17:50:0024.6690,08.6911931011
20/07/2017 17:40:0024.6700,08.7792231011
20/07/2017 17:30:0024.7710,08.4932541011
20/07/2017 17:20:0024.6710,08.2822861011
20/07/2017 17:10:0024.6720,08.1863161011
20/07/2017 17:00:0024.5710,08.0853461011
20/07/2017 16:50:0024.4710,08.1793781011
20/07/2017 16:40:0024.4720,08.1914061011
20/07/2017 16:30:0024.3730,08.3904351011
20/07/2017 16:20:0024.4720,08.6784621011
20/07/2017 16:10:0024.4740,08.6884881011
20/07/2017 16:00:0024.9730,08.1865171011
20/07/2017 15:50:0024.8680,08.3765491011
20/07/2017 15:40:0025.0650,08.3885801011
20/07/2017 15:30:0025.0660,08.2786071011
20/07/2017 15:20:0025.1670,08.0726341011
20/07/2017 15:10:0025.1630,08.2796601011
20/07/2017 15:00:0025.1610,08.3856871011
20/07/2017 14:50:0025.0630,08.5837091011
20/07/2017 14:40:0025.0660,08.1927331011
20/07/2017 14:30:0025.1660,07.9857591011
20/07/2017 14:20:0024.9640,08.6887591011
20/07/2017 14:10:0024.9670,08.1857821012
20/07/2017 14:00:0024.9680,08.2848111012
20/07/2017 13:50:0024.9700,07.9858391012
20/07/2017 13:40:0024.7700,08.1868691012
20/07/2017 13:30:0024.6720,08.4867491012
20/07/2017 13:20:0024.4740,08.1967001012
20/07/2017 13:10:0024.4740,08.3945221012
20/07/2017 13:00:0024.3750,08.5944411012
20/07/2017 12:50:0024.3760,08.51034921012

ÚLTIMES FOTOS WEBCAM
Imatges del Pont
ÚLTIMES DADES

21/07/2017  
14:40h Local  (12:40 GMT)
 
 Velocitat mitjana del Vent
   4,1 m/s
 Direcció del Vent
   130º
 Humitat Relativa
   65 %
 Temperatura Aparent
   25,6 ºC
 Pluja Acumulada
   0,0 l/m²
   Index UV    MOLT ALT
 Temperatura de l'aigua    N/A
 Alçada d'ona    N/A
 Direcció d'ona    N/A
 Velocitat del corrent    N/A
 Direcció del corrent    N/A